Location: Hradec Kralove
(50.2170°N, 15.8330°E)
Time: 16:10:45
(UTC+01:00)

Transit 2A - Visible Passes

Search period start: 29 January 2023 00:00
Search period end: 08 February 2023 00:00
Orbit: 594 x 962 km, 66.7° (Epoch: 29 January)

Date Brightness Start Highest point End Pass type
(mag) Time Alt. Az. Time Alt. Az. Time Alt. Az.
29 Jan 5.8 18:34:15 10° SSW 18:39:05 80° ESE 18:42:19 24° NE visible
29 Jan 7.7 20:18:35 10° W 20:22:49 27° NNW 20:22:49 27° NNW visible
30 Jan 6.0 17:59:55 10° SSW 18:04:38 57° ESE 18:09:19 13° NE visible
30 Jan 7.4 19:43:35 10° WSW 19:48:10 33° NW 19:49:49 28° N visible
30 Jan 8.9 21:29:48 10° NW 21:30:18 12° NW 21:30:18 12° NW visible
31 Jan 6.4 17:25:46 10° S 17:30:16 40° ESE 17:35:15 10° NE visible
31 Jan 7.0 19:08:42 10° WSW 19:13:27 42° NW 19:16:42 21° NNE visible
31 Jan 8.5 20:54:36 10° WNW 20:57:12 17° NNW 20:57:12 17° NNW visible
01 Feb 6.6 18:33:56 10° SW 18:38:47 55° NW 18:43:32 14° NNE visible
01 Feb 8.1 20:19:25 10° WNW 20:23:16 20° NNW 20:24:01 19° N visible
02 Feb 6.2 17:59:17 10° SW 18:04:12 74° NW 18:09:44 10° NE visible
02 Feb 8.0 19:44:16 10° WNW 19:48:24 23° NNW 19:50:46 18° N visible
02 Feb 8.9 21:30:32 10° NW 21:31:14 12° NNW 21:31:14 12° NNW visible
03 Feb 6.0 17:24:46 10° SSW 17:29:40 83° ESE 17:35:11 10° NE visible
03 Feb 7.7 19:09:10 10° W 19:13:34 27° NNW 19:17:28 14° NNE visible
03 Feb 8.6 20:55:30 10° NW 20:57:56 15° NNW 20:57:56 15° NNW visible
04 Feb 7.5 18:34:09 10° W 18:38:47 33° NW 18:43:52 10° NNE visible
04 Feb 8.3 20:20:22 10° NW 20:23:46 16° N 20:24:34 16° N visible
05 Feb 7.1 17:59:15 10° WSW 18:04:03 41° NW 18:09:23 10° NNE visible
05 Feb 8.3 19:45:11 10° WNW 19:48:49 18° NNW 19:51:11 14° NNE visible
05 Feb 8.9 21:30:47 10° NNW 21:31:40 12° NNW 21:31:40 12° NNW visible
06 Feb 6.7 17:24:27 10° WSW 17:29:22 54° NW 17:34:53 10° NNE visible
06 Feb 8.2 19:10:00 10° WNW 19:13:53 20° NNW 19:17:45 11° NNE visible
06 Feb 8.6 20:55:59 10° NNW 20:58:14 15° N 20:58:14 15° N visible
07 Feb 8.0 18:34:49 10° WNW 18:39:00 23° NNW 18:43:31 10° NNE visible
07 Feb 8.4 20:21:04 10° NW 20:24:21 15° N 20:24:46 15° N visible
07 Feb 9.1 22:05:07 10° NNW 22:05:14 10° NNW 22:05:14 10° NNW visible
